Regional Weather Roundup
Issued by NWS

Home | Current Version | Previous Version | Text Only | Print | Product List | Glossary On
Versions: 1 2 3 4 5 6 7 8 9 10 11 12 13 14 15 16 17 18 19 20 21 22 23 24 25 26 27 28 29 30 31 32 33 34 35 36 37 38 39 40 41 42 43 44 45 46 47 48 49 50
000
ASUS43 KLSX 032059
RWRMO

WEATHER SUMMARY FOR MISSOURI
NATIONAL WEATHER SERVICE SPRINGFIELD MO
300 PM CST TUE MAR 03 2015

NOTE: "FAIR" INDICATES FEW OR NO CLOUDS BELOW 12,000 FEET WITH NO
       SIGNIFICANT WEATHER AND/OR OBSTRUCTIONS TO VISIBILITY.
       CURRENT SKY AND/OR WEATHER CONDITIONS ARE NOT AVAILABLE FOR
       CHILLICOTHE AND FARMINGTON.

MOZ001>031-035>038-043-044-053-054-032200-
...NORTHERN AND WESTERN MISSOURI...

CITY           SKY/WX    TMP DP  RH WIND       PRES   REMARKS
KANSAS CTY INT CLOUDY    41  31  67 NW12      29.83R
KANSAS C DTWN  CLOUDY    46  32  58 NW14      29.83R
LEE`S SUMMIT   CLOUDY    42  34  73 N14G22    29.83R
ST JOSEPH      CLOUDY    42  29  59 NW20      29.84S
CHILLICOTHE      N/A     39  33  79 NW9       29.83R

$$
MOZ066>068-077>081-088>096-101>105-032200-
...SOUTHWEST MISSOURI...

CITY           SKY/WX    TMP DP  RH WIND       PRES   REMARKS
SPRINGFIELD    CLOUDY    50  46  86 SW7       29.80F
JOPLIN         CLOUDY    47  44  90 SW12G21   29.82F

$$
MOZ032>034-039>042-045>050-055>058-069>072-032200-
...CENTRAL MISSOURI...

CITY           SKY/WX    TMP DP  RH WIND       PRES   REMARKS
COLUMBIA       CLOUDY    44  39  82 W9        29.80R
JEFFERSON CITY CLOUDY    47  39  74 W13       29.81S
ROLLA          CLOUDY    47  43  86 W12       29.79F
SEDALIA        CLOUDY    44  39  82 W9G18     29.82S
OSAGE BEACH    CLOUDY    48  37  66 W10G21    29.82S

$$
MOZ051-052-059>065-032200-
...EAST CENTRAL MISSOURI...

CITY           SKY/WX    TMP DP  RH WIND       PRES   REMARKS
ST LOUIS INTL  CLOUDY    46  43  89 W7        29.81R FOG
SPIRIT OF STL  CLOUDY    45  44  97 CALM      29.80S
ST CHARLES     FOG       37  37 100 SW3       29.81S VSB 1/4

$$
MOZ072>076-082>087-097>100-106>115-032200-
...SOUTH CENTRAL AND SOUTHEAST MISSOURI...

CITY           SKY/WX    TMP DP  RH WIND       PRES   REMARKS
CAPE GIRARDEAU FOG       41  41 100 SW6       29.87F VSB 1/4
FARMINGTON     CLOUDY    46  43  87 SW8       29.84F
POPLAR BLUFF   CLOUDY    42  40  92 SW7       29.86S FOG
WEST PLAINS    CLOUDY    51  46  83 W5        29.83F

$$


USA.gov is the U.S. government's official web portal to all federal, state and local government web resources and services.